This is the latest recevied weather packets stored in our database for station/object KC5TIL. If no packets are shown the sender has not sent any weather packets the latest 10 day(s).
| Time | Temp. | Humidity | Pressure | Rain* | Wind** | Luminosity | Snow |
|---|---|---|---|---|---|---|---|
| 1777653414 | 16.67° C | 56% | 1018.8 hPa | 0 mm | - | 300 W/m² | - |
| 1777653111 | 16.67° C | 56% | 1018.7 hPa | 0 mm | - | 338 W/m² | - |
| 1777652807 | 16.67° C | 57% | 1018.8 hPa | 0 mm | - | 411 W/m² | - |
| 1777652503 | 16.11° C | 62% | 1018.9 hPa | 0 mm | - | 328 W/m² | - |
| 1777652201 | 16.11° C | 63% | 1018.9 hPa | 0 mm | - | 277 W/m² | - |
| 1777651898 | 15.56° C | 65% | 1018.7 hPa | 0 mm | - | 244 W/m² | - |
| 1777651594 | 15.56° C | 68% | 1018.7 hPa | 0 mm | - | 186 W/m² | - |
| 1777651292 | 16.11° C | 68% | 1019.1 hPa | 0 mm | - | 131 W/m² | - |
| 1777650988 | 15.56° C | 66% | 1018.8 hPa | 0 mm | - | 268 W/m² | - |
| 1777650685 | 15.56° C | 68% | 1018.9 hPa | 0 mm | - | 150 W/m² | - |
| 1777650383 | 15.56° C | 74% | 1018.7 hPa | 0 mm | - | 214 W/m² | - |
| 1777650080 | 15.56° C | 74% | 1018.7 hPa | 0 mm | - | 160 W/m² | - |
| 1777649777 | 15.56° C | 72% | 1018.9 hPa | 0 mm | - | 142 W/m² | - |
| 1777649474 | 15.56° C | 76% | 1019.1 hPa | 0 mm | - | 108 W/m² | - |
| 1777649170 | 15.56° C | 77% | 1018.7 hPa | 0 mm | - | 132 W/m² | - |
| 1777648867 | 15.56° C | 79% | 1018.6 hPa | 0 mm | - | 121 W/m² | - |
| 1777648261 | 15° C | 78% | 1019.5 hPa | 0 mm | - | 74 W/m² | - |
| 1777647956 | 15° C | 78% | 1019 hPa | 0 mm | - | 75 W/m² | - |
| 1777647654 | 15° C | 78% | 1018.8 hPa | 0 mm | - | 74 W/m² | - |
| 1777647349 | 15° C | 77% | 1018.5 hPa | 0 mm | - | 88 W/m² | - |
| 1777647048 | 15.56° C | 77% | 1018.2 hPa | 0 mm | - | 70 W/m² | - |
| 1777646744 | 15.56° C | 77% | 1018 hPa | 0 mm | - | 95 W/m² | - |
| 1777646439 | 15.56° C | 78% | 1018.2 hPa | 0 mm | - | 101 W/m² | - |
| 1777646135 | 15.56° C | 78% | 1018.1 hPa | 0 mm | - | 130 W/m² | - |
| 1777645833 | 15° C | 77% | 1018.3 hPa | 0 mm | - | 173 W/m² | - |
* Rain latest hour (hover to see other rain measurements)
** Current wind speed in m/s (hover to see current wind gust speed)